SL-14 DEB, 45323

Orbit data source: Space-Track

SL-14 DEB, 45323 is space debris in LEO originally from a launch on Thu, 15 Aug 1991 UTC launched from the Plesetsk Missile And Space Complex (PKMTR). Debris objects in space refer to the collection of defunct objects orbiting the Earth. Examples of debris include non-operational satellites, rocket bodies, and fragments generated from explosions, collisions, or faulty payload assembly.

Loading next visibility...
Identifier
45323, 1991-056BM
Orbit
LEO
Country
Flag of CISCIS
Related business
Manufacturer
Unknown
Mission
Spacecraft
Bus & Motor
Unknown
Mass
Unknown
Launch date (UTC)
1991-08-15 (34 years ago)
Launch vehicle
Unknown
Launch site
Plesetsk Missile And Space Complex (PKMTR)
Object type
Payload
Rocket body
Debris
Shape & HBR
Unknown shape, 0.1 m
Radar Cross Section
Small (<0.1 m²)

Expand to show TLE details & history
Last TLE update: 22 hours ago

TLE from 22 hours ago
0 SL-14 DEB
1 45323U 91056BM  25302.44896001  .00000780  00000-0  18920-2 0  9999
2 45323  82.5268 291.7523 0002234 346.2863  13.8200 13.20641919272935
Epoch: 2025-10-29T10:46Z
TLE epoch observation values (Epoch: 2025-10-29T10:46:30.144Z)
Latitude
-0.00007°
Longitude
92.10475°
Altitude
1,183.441 km
Speed
7.263 km/s
True Right ascension
19h 27m 00s
True Declination
0° 00' 00"
Sunlit
Object was in daylight at epoch
Visualization orbit readout
Latitude
Unknown
Longitude
Unknown
Altitude
Unknown
Speed
Unknown
Apparent Right ascension
Unknown
Apparent Declination
Unknown
Sunlit
N/A
Visualization observer readout
Local Sidereal Time
04:13:12
Azimuth
Unknown
Elevation
Unknown
Doppler factor
Unknown
Orbital elements
Apogee altitude
1,181.198 km
Perigee altitude
1,177.821 km
Semi-major axis
7,557.647 km
Eccentricity
0.00022
Inclination
82.5268°
RAAN
291.7523°
Arg. of periapsis
346.2863°
True anomaly
13.82612°
Mean anomaly
13.82°
Eccentric anomaly
13.82306°
Mean motion
3.30342 °/min
Orbital period
108.98 mins
BSTAR
0.001892
Loading maneuver chart data...
Computing Atmospheric mass density...
Loading historical data...
Loading historical data...
Loading historical data...
Loading historical data...
Loading historical data...
Loading historical data...
Loading historical data...

Documentation

Showing up to 5 results
|